Location: Härggis
(46.9540°N, 8.4897°E)
Time: 03:00:38
(UTC+00:00)

IDEFIX/ARIANE 42P - Pass Details

Date: 27 May 2022
Orbit: 785 x 802 km, 98.5° (Epoch: 26 June)

Event Time Altitude Azimuth Distance (km) Brightness Sun altitude
Rises 01:09:44 0° 20° (NNE) 3,324 7.5 -17.7°
Reaches altitude 10° 01:12:13 10° 28° (NNE) 2,389 6.4 -17.5°
Maximum altitude 01:17:12 41° 97° (E) 1,160 3.6 -17.1°
Enters shadow 01:21:07 15° 162° (SSE) 2,015 4.3 -16.8°
